FW3284 Weather Reports


Display with metric or nautical units.
time (UTC)temp
F
wind
direction
speed
MPH
gust
MPH
rain 1hr
in
rain 24hr
in
rain mn
in
humidity
%
barometer
mb
20260502203044 59 285 0.0 0.0 0.00 0.00 0.00 44 1020.1
20260502201526 60 360 0.0 1.0 0.00 0.00 0.00 45 1020.3
20260502200012 60 294 0.0 1.0 0.00 0.00 0.00 46 1020.5
20260502194600 59 300 0.0 1.0 0.00 0.00 0.00 43 1020.5
20260502193042 59 302 0.0 0.0 0.00 0.00 0.00 47 1020.5
20260502191527 59 275 0.0 0.0 0.00 0.00 0.00 47 1020.6
20260502190005 59 247 0.0 0.0 0.00 0.00 0.00 46 1020.6
20260502184550 59 321 0.0 0.0 0.00 0.00 0.00 47 1020.7
20260502183037 58 34 0.0 1.0 0.00 0.00 0.00 46 1020.7
20260502181520 57 278 0.0 1.0 0.00 0.00 0.00 46 1020.9
20260502170106 56 32 0.0 1.0 0.00 0.00 0.00 50 1021.2
20260502163022 57 303 0.0 1.0 0.00 0.00 0.00 56 1021.2
20260502161503 56 317 3.0 12.0 0.00 0.00 0.00 51 1021.2
20260502151558 54 340 0.0 0.0 0.00 0.00 0.00 65 1021.2
20260502123036 44 307 0.0 0.0 0.00 0.00 0.00 80 1019.8
20260502121517 43 262 0.0 0.0 0.00 0.00 0.00 80 1019.6
20260502114527 43 256 0.0 0.0 0.00 0.00 0.00 78 1019.5
20260502113003 43 256 0.0 0.0 0.00 0.00 0.00 77 1019.4
20260502111549 43 256 0.0 0.0 0.00 0.00 0.00 76 1019.2
20260502110032 43 256 0.0 0.0 0.00 0.00 0.00 79 1019.0
20260502104507 43 256 0.0 0.0 0.00 0.00 0.00 79 1019.0
20260502103053 44 256 0.0 0.0 0.00 0.00 0.00 78 1018.8
20260502101529 42 256 0.0 0.0 0.00 0.00 0.00 84 1018.7
20260502090108 43 276 0.0 0.0 0.00 0.00 0.00 81 1018.1
20260502071531 45 276 0.0 0.0 0.00 0.00 0.00 78 1018.3
20260502070037 44 276 0.0 0.0 0.00 0.00 0.00 83 1018.4
20260502064618 42 310 0.0 0.0 0.00 0.00 0.00 86 1018.4
20260502063050 42 26 0.0 0.0 0.00 0.00 0.00 84 1018.5
20260502061517 45 233 0.0 0.0 0.00 0.00 0.00 80 1018.3
20260502060057 47 233 0.0 0.0 0.00 0.00 0.00 68 1018.3
20260502054537 46 233 0.0 0.0 0.00 0.00 0.00 72 1018.3
20260502053019 46 233 0.0 0.0 0.00 0.00 0.00 71 1018.3
20260502051554 46 233 0.0 0.0 0.00 0.00 0.00 72 1018.1
20260502050040 46 233 0.0 0.0 0.00 0.00 0.00 75 1018.2
20260502044515 46 233 0.0 0.0 0.00 0.00 0.00 74 1018.2
20260502043050 46 233 0.0 0.0 0.00 0.00 0.00 72 1018.2
20260502041531 46 233 0.0 0.0 0.00 0.00 0.00 76 1018.3
20260502040005 47 233 0.0 0.0 0.00 0.00 0.00 74 1018.5
20260502034547 48 233 0.0 0.0 0.00 0.00 0.00 68 1018.6
20260502033032 50 233 0.0 0.0 0.00 0.00 0.00 61 1018.5
20260502031511 51 233 0.0 0.0 0.00 0.00 0.00 55 1018.6
20260502030055 52 233 0.0 0.0 0.00 0.00 0.00 52 1018.5
20260502024535 53 233 0.0 0.0 0.00 0.00 0.00 52 1018.5
20260502023021 53 233 0.0 0.0 0.00 0.00 0.00 49 1018.4
20260502021504 54 233 0.0 0.0 0.00 0.00 0.00 51 1018.3
20260502020054 54 233 0.0 0.0 0.00 0.00 0.00 49 1018.1
20260502014537 55 259 0.0 0.0 0.00 0.00 0.00 45 1017.9
20260502013017 56 269 0.0 0.0 0.00 0.00 0.00 45 1017.7
20260502011557 56 281 0.0 0.0 0.00 0.00 0.00 45 1017.4
20260502010039 57 284 0.0 0.0 0.00 0.00 0.00 45 1017.2
20260502004530 58 318 0.0 0.0 0.00 0.00 0.00 43 1016.9
20260502003003 59 319 0.0 0.0 0.00 0.00 0.00 40 1016.7
20260502001605 59 311 0.0 0.0 0.00 0.00 0.00 38 1016.6
20260502000056 60 335 0.0 0.0 0.00 0.00 0.00 38 1016.6
20260501234513 60 302 0.0 0.0 0.00 0.00 0.00 37 1016.8
20260501233055 61 314 0.0 0.0 0.00 0.00 0.00 35 1016.7
20260501231535 61 302 0.0 1.0 0.00 0.00 0.00 33 1016.6
20260501230021 61 338 0.0 1.0 0.00 0.00 0.00 37 1016.5
20260501224612 61 359 1.0 8.0 0.00 0.00 0.00 34 1016.5
20260501223041 61 303 0.0 8.0 0.00 0.00 0.00 35 1016.5
20260501221524 61 345 0.0 0.0 0.00 0.00 0.00 39 1016.5
20260501220011 61 327 0.0 0.0 0.00 0.00 0.00 38 1016.6
20260501214545 61 303 0.0 0.0 0.00 0.00 0.00 35 1016.6
20260501213027 62 304 0.0 14.0 0.00 0.00 0.00 34 1016.8
20260501211517 62 23 0.0 2.0 0.00 0.00 0.00 36 1017.1
20260501210040 61 311 0.0 1.0 0.00 0.00 0.00 37 1017.4
20260501204519 61 307 0.0 0.0 0.00 0.00 0.00 38 1017.8